[[{"header":{"parameterUnit":"m.s-1","parameterCategory":2,"la1":30.2992,"la2":30.254,"lo1":-89.0895,"lo2":-89.0443,"dy":0.0025,"dx":0.0025,"nx":19,"ny":19,"refTime":"2026-03-31T21:00:00:Z","depth":"0","parameterNumber":2,"parameterNumberName":"U-component_of_CURRENTS"},"data":[0,0,0,-0.1455,-0.1456,-0.1494,-0.1494,-0.1434,-0.1433,0,0,0,0,0,0,0,0,0,0,0,-0.1429,-0.1429,-0.1455,-0.1456,-0.1494,-0.1494,-0.1434,-0.1433,0,0,0,0,0,0,0,0,0,0,0,-0.1429,-0.1429,-0.1429,-0.1456,-0.1494,-0.1494,-0.1434,-0.1428,0,0,0,0,0,0,0,0,0,0,-0.1403,-0.1392,-0.1429,-0.1429,-0.1457,-0.1494,-0.1494,-0.1429,-0.1428,-0.139,0,-0.1403,0,-0.1427,-0.1428,-0.1428,0,0,0,-0.1439,-0.1393,-0.1417,-0.143,-0.1457,-0.1494,-0.1472,-0.1429,-0.1429,-0.1389,-0.1403,-0.1402,-0.1426,-0.1427,-0.1427,-0.141,-0.141,0,0,-0.1437,-0.1417,-0.1418,-0.1417,-0.1474,-0.1471,-0.1474,-0.143,-0.142,-0.1402,-0.1401,-0.1425,-0.1427,-0.1426,-0.1409,-0.141,0,0,0,-0.1442,-0.1416,-0.1443,-0.1418,-0.144,-0.1473,-0.1476,-0.1422,-0.1436,-0.1401,-0.1425,-0.1427,-0.1426,-0.1409,-0.141,-0.1438,0,0,0,-0.144,-0.1421,-0.1442,-0.1428,-0.1442,-0.1446,-0.1468,-0.1438,-0.1435,-0.1425,-0.1427,-0.1425,-0.1409,-0.1409,-0.1436,-0.1432,0,0,0,-0.1426,-0.1419,-0.1429,-0.1428,-0.1456,-0.1448,-0.1458,-0.1439,-0.145,-0.1428,-0.1425,-0.1408,-0.1409,-0.1435,-0.1431,-0.1461,0,0,0,-0.1396,-0.1423,-0.1428,-0.1462,-0.1456,-0.1493,-0.1459,-0.1468,-0.1454,-0.1426,-0.1409,-0.1409,-0.1434,-0.1429,-0.146,-0.1382,-0.1383,0,0,-0.142,-0.1425,-0.1448,-0.1455,-0.149,-0.1486,-0.1506,-0.1472,-0.1452,-0.1411,-0.1411,-0.1437,-0.143,-0.1461,-0.1433,-0.1431,0,0,0,-0.145,-0.1457,-0.1473,-0.1489,-0.1516,-0.1512,-0.1501,-0.1501,-0.1481,-0.1453,-0.1446,-0.1441,-0.146,-0.1411,-0.141,-0.1358,-0.1413,-0.1413,-0.1413,-0.1419,-0.145,-0.1458,-0.1484,-0.1507,-0.1526,-0.1532,-0.1523,-0.1501,-0.1508,-0.1473,-0.1523,-0.1471,-0.147,-0.1418,-0.149,-0.149,-0.149,-0.149,-0.1392,-0.1378,-0.1414,-0.143,-0.1452,-0.1464,-0.1516,-0.1525,-0.1544,-0.1518,-0.1535,-0.1452,-0.147,-0.1416,-0.1492,-0.1492,-0.1492,-0.1492,-0.1492,-0.1322,-0.1317,-0.1331,-0.134,-0.1367,-0.1418,-0.1477,-0.152,-0.1545,-0.1568,-0.1515,-0.1513,-0.1457,-0.1579,-0.1579,-0.1579,-0.1579,-0.1579,-0.1579,-0.1219,-0.1239,-0.123,-0.1258,-0.1284,-0.1342,-0.1454,-0.1506,-0.1535,-0.153,-0.1529,-0.1462,-0.155,-0.1537,-0.1581,-0.1581,-0.1581,-0.158,-0.158,-0.112,-0.1143,-0.1131,-0.115,-0.1219,-0.1259,-0.1395,-0.1466,-0.1525,-0.1518,-0.1424,-0.1517,-0.1499,-0.1498,-0.1484,-0.1512,-0.1512,-0.1512,-0.1512,-0.1045,-0.1057,-0.1041,-0.1071,-0.1136,-0.122,-0.1258,-0.1316,-0.1349,-0.1319,-0.137,-0.1323,-0.1328,-0.1298,-0.1302,-0.1284,-0.126,-0.126,-0.126,-0.0965,-0.0981,-0.0947,-0.0995,-0.1086,-0.1155,-0.1124,-0.11,-0.1164,-0.1248,-0.1318,-0.1329,-0.1261,-0.1272,-0.1224,-0.1233,-0.1203,0,0]},{"header":{"parameterUnit":"m.s-1","parameterCategory":2,"la1":30.2992,"la2":30.254,"lo1":-89.0895,"lo2":-89.0443,"dy":0.0025,"dx":0.0025,"nx":19,"ny":19,"refTime":"2026-03-31T21:00:00:Z","depth":"0","parameterNumber":3,"parameterNumberName":"V-component_of_CURRENTS"},"data":[0,0,0,-0.0011,-0.001,0.0063,0.0063,0.0135,0.0135,0,0,0,0,0,0,0,0,0,0,0,-0.0042,-0.0042,-0.0011,-0.001,0.0063,0.0064,0.0135,0.0135,0,0,0,0,0,0,0,0,0,0,0,-0.0042,-0.0042,-0.0042,-0.0009,0.0063,0.0064,0.0134,0.0087,0,0,0,0,0,0,0,0,0,0,0.0019,-0.0013,-0.0042,-0.0042,-0.0009,0.0063,0.0064,0.0085,0.009,0.0093,0,0.0097,0,0.0117,0.0139,0.0139,0,0,0,-0.0003,-0.0017,0.0006,-0.0042,-0.0008,0.0063,0.0032,0.0088,0.0093,0.01,0.0098,0.0101,0.0118,0.0139,0.0139,0.018,0.018,0,0,-0.0007,-0.003,0.0002,0.0009,0.0,0.003,0.0034,0.0091,0.009,0.0098,0.0103,0.0119,0.014,0.014,0.018,0.018,0,0,0,-0.0023,-0.0033,-0.001,0.0006,0.0021,0.0032,0.0037,0.0087,0.0096,0.0104,0.012,0.014,0.014,0.018,0.018,0.0135,0,0,0,-0.0025,-0.0042,-0.0012,-0.0025,0.0019,0.0057,0.0031,0.0092,0.0099,0.012,0.014,0.0141,0.018,0.018,0.0136,0.0112,0,0,0,-0.0044,-0.0044,-0.0038,-0.0027,0.0003,0.0057,0.0069,0.0094,0.0108,0.0139,0.0141,0.018,0.018,0.0137,0.0114,0.0137,0,0,0,-0.0066,-0.0082,-0.0039,-0.0054,0.0002,0.0025,0.0069,0.009,0.011,0.014,0.018,0.018,0.0137,0.0116,0.0138,0.0187,0.0188,0,0,-0.0103,-0.0087,-0.0097,-0.0056,-0.0055,0.0016,0.0031,0.0079,0.0116,0.016,0.0162,0.0136,0.0115,0.0137,0.0192,0.0193,0,0,0,-0.0119,-0.0128,-0.0122,-0.0107,-0.0068,-0.0022,0.0036,0.0072,0.0121,0.013,0.015,0.0139,0.0154,0.0186,0.0187,0.033,0.018,0.018,0.018,-0.0193,-0.017,-0.0182,-0.0147,-0.0123,-0.0045,-0.0004,0.0061,0.0093,0.0114,0.0113,0.0112,0.0145,0.0146,0.0292,0.0128,0.0128,0.0128,0.0127,-0.0251,-0.0259,-0.0219,-0.0224,-0.0161,-0.0132,-0.0033,0.0009,0.0077,0.0096,0.0114,0.015,0.0144,0.03,0.0125,0.0125,0.0126,0.0126,0.0126,-0.0307,-0.0305,-0.0299,-0.0284,-0.0253,-0.018,-0.0137,-0.0058,0.0031,0.0048,0.0119,0.0121,0.0252,0.0065,0.0065,0.0065,0.0065,0.0065,0.0065,-0.0358,-0.035,-0.0369,-0.0345,-0.0342,-0.0304,-0.0197,-0.0133,0.0001,0.0079,0.0081,0.0277,0.0094,0.0089,0.0065,0.0065,0.0065,0.0065,0.0065,-0.0418,-0.0412,-0.0448,-0.0456,-0.0441,-0.0424,-0.0317,-0.0132,-0.0033,0.0053,0.0318,0.0118,0.0146,0.0147,0.0144,0.0136,0.0136,0.0136,0.0136,-0.0455,-0.0454,-0.051,-0.0542,-0.0545,-0.0485,-0.0369,-0.0136,0.0206,0.0385,0.0428,0.0467,0.0457,0.0505,0.0498,0.0504,0.0587,0.0588,0.0589,-0.0477,-0.0499,-0.055,-0.0583,-0.0596,-0.0542,-0.0406,-0.0062,0.044,0.0621,0.0618,0.0599,0.0667,0.0641,0.0724,0.0703,0.0714,0,0]}],[{"header":{"parameterUnit":"m.s-1","parameterCategory":2,"la1":30.2992,"la2":30.254,"lo1":-89.0895,"lo2":-89.0443,"dy":0.0025,"dx":0.0025,"nx":19,"ny":19,"refTime":"2026-03-31T21:00:00:Z","depth":"2","parameterNumber":2,"parameterNumberName":"U-component_of_CURRENTS"},"data":[0,0,0,-0.1328,-0.133,-0.1399,-0.1399,-0.1339,-0.1338,0,0,0,0,0,0,0,0,0,0,0,-0.1286,-0.1287,-0.1328,-0.1331,-0.1399,-0.1399,-0.1339,-0.1338,0,0,0,0,0,0,0,0,0,0,0,-0.1286,-0.1287,-0.1287,-0.1331,-0.1399,-0.1398,-0.1339,-0.1318,0,0,0,0,0,0,0,0,0,0,-0.1268,-0.1252,-0.1286,-0.1287,-0.1332,-0.1399,-0.1398,-0.1318,-0.1319,-0.1274,0,-0.1295,0,-0.1332,-0.1333,-0.1333,0,0,0,-0.1305,-0.1251,-0.1285,-0.1287,-0.1333,-0.1399,-0.1361,-0.132,-0.1321,-0.1275,-0.1295,-0.1294,-0.1331,-0.1333,-0.1333,-0.1311,-0.1311,0,0,-0.1301,-0.1277,-0.1285,-0.1286,-0.136,-0.1359,-0.1363,-0.1322,-0.1314,-0.1295,-0.1294,-0.133,-0.1332,-0.1332,-0.1311,-0.1311,0,0,0,-0.1308,-0.1274,-0.1311,-0.1287,-0.1321,-0.1361,-0.1366,-0.1315,-0.1333,-0.1294,-0.1329,-0.1332,-0.1331,-0.131,-0.1311,-0.1319,0,0,0,-0.1304,-0.1281,-0.131,-0.1293,-0.1323,-0.1339,-0.136,-0.1335,-0.1333,-0.1329,-0.1332,-0.133,-0.131,-0.131,-0.1318,-0.1318,0,0,0,-0.1281,-0.1278,-0.1294,-0.1292,-0.1338,-0.1341,-0.1355,-0.1336,-0.1355,-0.1333,-0.133,-0.131,-0.131,-0.1318,-0.1317,-0.1344,0,0,0,-0.1243,-0.1276,-0.1293,-0.1336,-0.1338,-0.139,-0.1356,-0.1376,-0.1363,-0.1332,-0.131,-0.1311,-0.1317,-0.1316,-0.1342,-0.126,-0.1258,0,0,-0.1268,-0.1277,-0.1307,-0.1325,-0.1372,-0.1378,-0.1397,-0.1367,-0.1355,-0.1307,-0.1308,-0.1319,-0.1317,-0.1343,-0.1304,-0.13,0,0,0,-0.1304,-0.1316,-0.1339,-0.1366,-0.1405,-0.1399,-0.1393,-0.1393,-0.1369,-0.1359,-0.1332,-0.1331,-0.1347,-0.1295,-0.1293,-0.1314,-0.1314,-0.1314,-0.1314,-0.1271,-0.1306,-0.1324,-0.1355,-0.1383,-0.1405,-0.1409,-0.1397,-0.1381,-0.1384,-0.1348,-0.1386,-0.1331,-0.1328,-0.1361,-0.1361,-0.1361,-0.1361,-0.1361,-0.1252,-0.1245,-0.1278,-0.1306,-0.132,-0.1329,-0.1372,-0.138,-0.1394,-0.1376,-0.1391,-0.1319,-0.1326,-0.1362,-0.1362,-0.1362,-0.1362,-0.1362,-0.1362,-0.1186,-0.1182,-0.1203,-0.1217,-0.1238,-0.1283,-0.1331,-0.1369,-0.139,-0.1409,-0.1362,-0.136,-0.1388,-0.142,-0.142,-0.142,-0.142,-0.142,-0.1421,-0.1086,-0.111,-0.1108,-0.114,-0.1165,-0.1218,-0.1314,-0.1355,-0.1374,-0.1366,-0.1365,-0.1406,-0.1404,-0.1392,-0.1422,-0.1422,-0.1422,-0.1422,-0.1422,-0.0994,-0.1019,-0.1018,-0.1039,-0.1105,-0.1131,-0.1254,-0.1304,-0.1356,-0.1341,-0.1347,-0.1348,-0.1339,-0.1339,-0.1326,-0.1338,-0.1338,-0.1338,-0.1338,-0.0924,-0.0938,-0.0935,-0.0967,-0.1023,-0.109,-0.1099,-0.1124,-0.1185,-0.1171,-0.1178,-0.1132,-0.1139,-0.1117,-0.1122,-0.1104,-0.1058,-0.1057,-0.1057,-0.0852,-0.0871,-0.0846,-0.0895,-0.0974,-0.1018,-0.0955,-0.087,-0.0905,-0.1046,-0.1129,-0.1319,-0.1269,-0.1273,-0.1253,-0.1256,-0.1233,0,0]},{"header":{"parameterUnit":"m.s-1","parameterCategory":2,"la1":30.2992,"la2":30.254,"lo1":-89.0895,"lo2":-89.0443,"dy":0.0025,"dx":0.0025,"nx":19,"ny":19,"refTime":"2026-03-31T21:00:00:Z","depth":"2","parameterNumber":3,"parameterNumberName":"V-component_of_CURRENTS"},"data":[0,0,0,-0.011,-0.0108,-0.0022,-0.0022,0.0058,0.0058,0,0,0,0,0,0,0,0,0,0,0,-0.0147,-0.0146,-0.011,-0.0108,-0.0022,-0.0022,0.0058,0.0058,0,0,0,0,0,0,0,0,0,0,0,-0.0147,-0.0146,-0.0146,-0.0108,-0.0023,-0.0022,0.0057,0.0001,0,0,0,0,0,0,0,0,0,0,-0.0078,-0.0111,-0.0146,-0.0146,-0.0108,-0.0023,-0.0022,-0.0001,0.0005,0.0008,0,0.0015,0,0.0039,0.0062,0.0063,0,0,0,-0.0103,-0.0115,-0.0091,-0.0146,-0.0107,-0.0023,-0.006,0.0003,0.0009,0.0016,0.0017,0.002,0.004,0.0063,0.0063,0.0117,0.0117,0,0,-0.0108,-0.013,-0.0095,-0.0087,-0.0093,-0.0062,-0.0057,0.0007,0.0008,0.0017,0.0022,0.0041,0.0063,0.0064,0.0116,0.0117,0,0,0,-0.0125,-0.0134,-0.011,-0.0091,-0.0072,-0.006,-0.0054,0.0005,0.0014,0.0024,0.0042,0.0064,0.0064,0.0116,0.0117,0.0069,0,0,0,-0.0128,-0.0144,-0.0112,-0.0124,-0.0074,-0.0028,-0.0057,0.0009,0.0017,0.0042,0.0064,0.0065,0.0116,0.0116,0.007,0.004,0,0,0,-0.0149,-0.0146,-0.0138,-0.0126,-0.009,-0.0029,-0.0016,0.0012,0.0029,0.0063,0.0065,0.0116,0.0116,0.0071,0.0043,0.0054,0,0,0,-0.0171,-0.0182,-0.0139,-0.0144,-0.0091,-0.0057,-0.0016,0.0013,0.0037,0.0064,0.0116,0.0117,0.0071,0.0044,0.0055,0.0089,0.0088,0,0,-0.0201,-0.0186,-0.0189,-0.0149,-0.0136,-0.0068,-0.0043,0.0006,0.0046,0.0094,0.0095,0.007,0.0043,0.0054,0.0106,0.0104,0,0,0,-0.021,-0.0215,-0.0204,-0.0182,-0.0138,-0.0092,-0.003,0.0004,0.0055,0.0063,0.0089,0.0074,0.0082,0.0106,0.0104,0.0118,0.0118,0.0118,0.0118,-0.0275,-0.0248,-0.0251,-0.0211,-0.0183,-0.0104,-0.0066,-0.0003,0.0033,0.0053,0.005,0.0044,0.0068,0.0068,0.0072,0.0072,0.0072,0.0071,0.0071,-0.0323,-0.0326,-0.0283,-0.0279,-0.0217,-0.0184,-0.0093,-0.0053,0.0007,0.0033,0.0044,0.0072,0.0063,0.0068,0.0069,0.0069,0.0069,0.007,0.007,-0.0373,-0.037,-0.0359,-0.0337,-0.0306,-0.0234,-0.0202,-0.0126,-0.0044,-0.0032,0.0027,0.0029,0.0011,-0.0017,-0.0017,-0.0017,-0.0017,-0.0017,-0.0017,-0.0423,-0.0411,-0.0426,-0.0398,-0.0394,-0.036,-0.0265,-0.0211,-0.0094,-0.0021,-0.0019,0.0015,0.0017,0.0008,-0.0018,-0.0018,-0.0018,-0.0018,-0.0018,-0.0478,-0.0473,-0.0505,-0.0511,-0.0496,-0.0485,-0.0389,-0.0233,-0.015,-0.0078,0.0005,0.0004,0.0028,0.003,0.0023,0.0001,0.0001,0.0001,0.0001,-0.0516,-0.0514,-0.0567,-0.0598,-0.0603,-0.0548,-0.0458,-0.0261,-0.0073,0.0015,0.0015,0.0034,0.0034,0.0059,0.006,0.0054,0.0041,0.0041,0.0041,-0.0539,-0.0559,-0.0609,-0.064,-0.0654,-0.0609,-0.0498,-0.0219,0.0033,0.004,-0.0002,0.0009,0.0037,0.0036,0.0076,0.0078,0.0069,0,0]}],[{"header":{"parameterUnit":"m.s-1","parameterCategory":2,"la1":30.2992,"la2":30.254,"lo1":-89.0895,"lo2":-89.0443,"dy":0.0025,"dx":0.0025,"nx":19,"ny":19,"refTime":"2026-03-31T21:00:00:Z","depth":"4","parameterNumber":2,"parameterNumberName":"U-component_of_CURRENTS"},"data":[0,0,0,-0.0517,-0.0516,-0.0496,-0.0497,-0.0476,-0.0476,0,0,0,0,0,0,0,0,0,0,0,-0.0549,-0.0548,-0.0517,-0.0516,-0.0496,-0.0497,-0.0476,-0.0476,0,0,0,0,0,0,0,0,0,0,0,-0.0549,-0.0548,-0.0548,-0.0515,-0.0496,-0.0497,-0.0477,-0.0497,0,0,0,0,0,0,0,0,0,0,-0.0518,-0.0537,-0.0549,-0.0548,-0.0515,-0.0496,-0.0497,-0.0498,-0.0496,-0.0477,0,-0.0473,0,-0.0449,-0.0472,-0.0472,0,0,0,-0.0544,-0.054,-0.0523,-0.0548,-0.0514,-0.0496,-0.0513,-0.0497,-0.0494,-0.0474,-0.0472,-0.047,-0.0449,-0.0472,-0.0471,-0.0641,-0.0644,0,0,-0.0545,-0.0556,-0.0525,-0.0521,-0.0506,-0.0514,-0.0512,-0.0495,-0.0497,-0.0472,-0.0469,-0.0448,-0.0471,-0.0471,-0.0639,-0.0642,0,0,0,-0.0529,-0.0557,-0.0542,-0.0523,-0.0505,-0.0512,-0.0511,-0.0499,-0.0491,-0.0469,-0.0448,-0.0471,-0.047,-0.0637,-0.064,-0.0694,0,0,0,-0.0531,-0.0545,-0.0542,-0.055,-0.0505,-0.0499,-0.0515,-0.0493,-0.0489,-0.0448,-0.0471,-0.047,-0.0634,-0.0639,-0.0687,-0.0683,0,0,0,-0.055,-0.0547,-0.0542,-0.0551,-0.0525,-0.0499,-0.0491,-0.0493,-0.0475,-0.0472,-0.0469,-0.0632,-0.0638,-0.068,-0.0674,-0.069,0,0,0,-0.0567,-0.0568,-0.0542,-0.0548,-0.0525,-0.0515,-0.0491,-0.049,-0.0492,-0.0471,-0.0635,-0.064,-0.0678,-0.0669,-0.0685,-0.0509,0,0,0,-0.0579,-0.057,-0.0577,-0.0552,-0.0558,-0.052,-0.0604,-0.0596,-0.0584,-0.0638,-0.0642,-0.0689,-0.0674,-0.0689,-0.0836,0,0,0,0,-0.0588,-0.0597,-0.0584,-0.0595,-0.057,-0.064,-0.0635,-0.0652,-0.0741,-0.0604,-0.0786,-0.0776,-0.0782,-0.0674,-0.0667,-0.0666,-0.0665,-0.0665,-0.0664,-0.0615,-0.0632,-0.0658,-0.0695,-0.0708,-0.0745,-0.0795,-0.0856,-0.0812,-0.0906,-0.0893,-0.104,-0.0941,-0.0991,-0.0992,-0.0992,-0.0992,-0.0993,-0.0993,-0.0661,-0.0687,-0.0748,-0.0782,-0.0858,-0.0931,-0.1002,-0.1014,-0.1084,-0.1058,-0.1061,-0.0832,-0.1001,-0.0999,-0.0998,-0.0997,-0.0996,-0.0996,-0.0996,-0.0675,-0.0695,-0.0747,-0.0845,-0.0946,-0.102,-0.1075,-0.1117,-0.1133,-0.1152,-0.1012,-0.1076,-0.0982,-0.1147,-0.1147,-0.1147,-0.1147,-0.1147,-0.1147,-0.0662,-0.0719,-0.0771,-0.0874,-0.0926,-0.0999,-0.1087,-0.1101,-0.1133,-0.1061,-0.1156,-0.109,-0.1085,-0.0995,-0.1149,-0.1149,-0.1149,-0.1148,-0.1148,-0.0641,-0.0673,-0.0733,-0.0787,-0.0893,-0.093,-0.1035,-0.1026,-0.1031,-0.0991,-0.1009,-0.1015,-0.096,-0.0958,-0.0858,-0.0978,-0.0976,-0.0974,0,-0.0606,-0.0634,-0.069,-0.074,-0.0791,-0.0879,-0.0857,-0.0889,-0.091,-0.0877,-0.1027,-0.1048,-0.1051,-0.0989,-0.0984,-0.0869,0,0,0,-0.0575,-0.0602,-0.0609,-0.0679,-0.0731,-0.0763,-0.084,-0.0808,-0.0917,-0.0867,-0.093,-0.0941,-0.1068,-0.1155,-0.1085,-0.1079,-0.0928,0,0]},{"header":{"parameterUnit":"m.s-1","parameterCategory":2,"la1":30.2992,"la2":30.254,"lo1":-89.0895,"lo2":-89.0443,"dy":0.0025,"dx":0.0025,"nx":19,"ny":19,"refTime":"2026-03-31T21:00:00:Z","depth":"4","parameterNumber":3,"parameterNumberName":"V-component_of_CURRENTS"},"data":[0,0,0,-0.0221,-0.0221,-0.0183,-0.0183,-0.0036,-0.0035,0,0,0,0,0,0,0,0,0,0,0,-0.0229,-0.0229,-0.0221,-0.0221,-0.0183,-0.0182,-0.0037,-0.0035,0,0,0,0,0,0,0,0,0,0,0,-0.0229,-0.0229,-0.023,-0.0221,-0.0183,-0.0182,-0.0037,-0.0084,0,0,0,0,0,0,0,0,0,0,-0.013,-0.0158,-0.0229,-0.023,-0.0221,-0.0183,-0.0182,-0.0087,-0.0081,-0.0034,0,-0.0045,0,-0.0048,-0.0025,-0.0025,0,0,0,-0.0195,-0.0163,-0.0162,-0.023,-0.0221,-0.0183,-0.0193,-0.0084,-0.0077,-0.0026,-0.0043,-0.0039,-0.0046,-0.0025,-0.0024,0.0125,0.0126,0,0,-0.0197,-0.0205,-0.0167,-0.0158,-0.0231,-0.0194,-0.0192,-0.008,-0.0074,-0.0043,-0.0036,-0.0043,-0.0024,-0.0023,0.0125,0.0125,0,0,0,-0.0221,-0.0206,-0.0209,-0.0164,-0.0171,-0.0194,-0.0191,-0.0078,-0.0083,-0.0034,-0.0042,-0.0023,-0.0021,0.0124,0.0125,0.0051,0,0,0,-0.0221,-0.0222,-0.0211,-0.0212,-0.0175,-0.0138,-0.0191,-0.009,-0.0079,-0.0042,-0.0023,-0.002,0.0123,0.0124,0.0052,0.0015,0,0,0,-0.0227,-0.0222,-0.0227,-0.0213,-0.021,-0.014,-0.0137,-0.0088,-0.0083,-0.0025,-0.0019,0.0123,0.0124,0.0053,0.0017,0.0011,0,0,0,-0.0222,-0.0234,-0.0227,-0.022,-0.0211,-0.0153,-0.0138,-0.0077,-0.0025,-0.0022,0.0123,0.0125,0.0053,0.0018,0.0012,-0.0013,0,0,0,-0.0233,-0.0235,-0.0225,-0.0219,-0.0178,-0.0155,-0.0105,-0.004,0.0012,0.0097,0.01,0.0052,0.0017,0.0011,0.0068,0,0,0,0,-0.0224,-0.0225,-0.0202,-0.0183,-0.0137,-0.0117,-0.0054,-0.0027,0.0037,0.004,0.01,0.0082,0.0079,0.0071,0.0131,0.0131,0.0131,0.0131,0.0131,-0.0247,-0.022,-0.0201,-0.0169,-0.0133,-0.0074,-0.005,-0.0,0.0053,0.0071,0.0057,0.005,0.0044,0.0102,0.0102,0.0101,0.0101,0.0101,0.0101,-0.0262,-0.026,-0.0222,-0.0204,-0.0169,-0.0132,-0.0066,-0.0041,0.0005,0.0043,0.0044,0.0039,0.0095,0.0096,0.0097,0.0098,0.0098,0.0098,0.0099,-0.0287,-0.0289,-0.0278,-0.0264,-0.0247,-0.0195,-0.0185,-0.0124,-0.0058,-0.0057,-0.0032,0.0015,-0.0019,-0.0047,-0.0047,-0.0048,-0.0048,-0.0048,-0.0048,-0.0331,-0.0319,-0.034,-0.0325,-0.0331,-0.0317,-0.0253,-0.0221,-0.0146,-0.0105,-0.0069,0.0001,0.0006,-0.0024,-0.0051,-0.005,-0.005,-0.005,-0.005,-0.0366,-0.0375,-0.0408,-0.0425,-0.0431,-0.0412,-0.0359,-0.027,-0.024,-0.0194,-0.0118,-0.0114,-0.0088,-0.008,-0.0113,-0.0167,-0.0168,-0.0168,0,-0.0401,-0.0403,-0.0465,-0.0503,-0.0514,-0.0468,-0.0421,-0.036,-0.0259,-0.0253,-0.0246,-0.0165,-0.0159,-0.0133,-0.0127,-0.0168,0,0,0,-0.0423,-0.0445,-0.0497,-0.0534,-0.0547,-0.0461,-0.0403,-0.0369,-0.0272,-0.0236,-0.0179,-0.0176,-0.0137,-0.0059,-0.0008,-0.0002,-0.0048,0,0]}]]